Kingston, Jamaica
Current Conditions -  °F | °C
As of 10:00 AM on Friday 31 Oct 2014 (Local Time) from MKJP Reporting Station
Few Clouds Few Clouds  
Wind Chill: 84°   Ceiling: Unl
Heat Index: 91°   Visibility: 6mi
Dew Point: 73°   Wind: 7mph
Humidity: 70%   Direction: 210°SSW
Pressure: 29.85"   Gusts: NA
Location:  17.99°N, 76.8°W
Report Text: MKJP 311500Z 21006KT 9999 FEW022 29/23 Q1011
Loading
Personal Weather Stations






























Interactive Weather Map
Tropical Storm Tracking
New forecast layout! Learn more

10-Day Weather Forecast

Advertisements
Track Severe Weather on mobile